This demonstration page uses our WeatherBlox Daily Observations layout. Learn more.

Left ArrowRight Arrow

Hourly Observations for November 12, 2015

Temp ( °F °C ) Dew Point ( °F °C ) Humidity (%) Winds ( mph kmh ) Pressure ( in mb ) Visibility ( mi km ) Precip ( " mm )
12:53 am 00:53 Clear 40 4.4 35 1.7 83 83 Calm 30.29 1026 10 16 0.00 0.00
1:53 am 01:53 Clear 37 2.8 32 0 82 82 Calm 30.29 1026 8 13 0.00 0.00
2:53 am 02:53 Clear 38 3.3 33 0.6 83 83 Calm 30.28 1025 9 14 0.00 0.00
3:53 am 03:53 Clear 37 2.8 32 0 82 82 Calm 30.27 1025 10 16 0.00 0.00
4:53 am 04:53 Clear 37 2.8 31 -0.6 79 79 Calm 30.27 1025 10 16 0.00 0.00
5:53 am 05:53 Clear 35 1.7 30 -1.1 82 82 Calm 30.27 1025 10 16 0.00 0.00
6:53 am 06:53 Sunny 33 0.6 29 -1.7 85 85 Calm 30.28 1026 9 14 0.00 0.00
7:53 am 07:53 Sunny 38 3.3 34 1.1 86 86 Calm 30.30 1026 10 16 0.00 0.00
8:53 am 08:53 Sunny 42 5.6 37 2.8 82 82 Calm 30.30 1026 10 16 0.00 0.00
9:53 am 09:53 Sunny 50 10 41 5 71 71 Calm 30.29 1026 10 16 0.00 0.00
10:53 am 10:53 Sunny 61 16.1 39 3.9 44 44 VRB 7 11 30.27 1025 10 16 0.00 0.00
11:53 am 11:53 Sunny 66 18.9 36 2.2 33 33 NNE 10 17 30.22 1024 10 16 0.00 0.00
12:53 pm 12:53 Sunny 68 20 35 1.7 30 30 N 8 13 30.19 1022 10 16 0.00 0.00
1:53 pm 13:53 Sunny 69 20.6 36 2.2 30 30 NNW 9 15 30.16 1021 10 16 0.00 0.00
2:53 pm 14:53 Sunny 71 21.7 35 1.7 27 27 VRB 7 11 30.14 1021 10 16 0.00 0.00
3:53 pm 15:53 Sunny 70 21.1 35 1.7 28 28 NNW 7 11 30.13 1020 10 16 0.00 0.00
4:53 pm 16:53 Sunny 66 18.9 36 2.2 33 33 NW 7 11 30.13 1020 10 16 0.00 0.00
5:53 pm 17:53 Clear 62 16.7 34 1.1 35 35 N 5 7 30.13 1020 10 16 0.00 0.00
6:53 pm 18:53 Clear 58 14.4 35 1.7 42 42 NNW 5 7 30.14 1021 10 16 0.00 0.00
7:53 pm 19:53 Clear 55 12.8 37 2.8 51 51 N 5 7 30.14 1021 10 16 0.00 0.00
8:53 pm 20:53 Clear 53 11.7 38 3.3 57 57 NNW 3 6 30.14 1021 10 16 0.00 0.00
9:53 pm 21:53 Clear 50 10 37 2.8 61 61 Calm 30.13 1020 10 16 0.00 0.00
10:53 pm 22:53 Clear 54 12.2 37 2.8 53 53 Calm 30.11 1020 10 16 0.00 0.00
11:53 pm 23:53 Clear 47 8.3 37 2.8 69 69 Calm 30.11 1020 10 16 0.00 0.00

Powered by AerisWeather